Time,TemperatureF,DewpointF,PressureIn,WindDirection,WindDirectionDegrees,WindSpeedMPH,WindSpeedGustMPH,Humidity,HourlyPrecipIn,Conditions,Clouds,dailyrainin,SolarRadiationWatts/m^2,SoftwareType,DateUTC
2013-09-02 00:00:00,71.0,66.0,-100.00,SW,225,2.0,-999.0,86,-99.99,,,-99.99,0.000000,,2013-09-02 04:00:00,
2013-09-02 00:44:00,71.0,66.0,-100.00,SW,225,2.0,-999.0,86,-99.99,,,-99.99,0.000000,,2013-09-02 04:44:00,
2013-09-02 00:54:00,71.0,66.0,-100.00,SW,225,2.0,-999.0,86,-99.99,,,-99.99,0.000000,,2013-09-02 04:54:00,
2013-09-02 01:00:00,71.0,67.0,-100.00,SW,225,1.0,-999.0,86,-99.99,,,-99.99,0.000000,,2013-09-02 05:00:00,
2013-09-02 01:44:00,71.0,67.0,-100.00,SW,225,1.0,-999.0,86,-99.99,,,-99.99,0.000000,,2013-09-02 05:44:00,
2013-09-02 01:52:00,71.0,67.0,-100.00,SW,225,1.0,-999.0,86,-99.99,,,-99.99,0.000000,,2013-09-02 05:52:00,
2013-09-02 02:00:00,70.0,67.0,-100.00,WSW,247,1.0,-999.0,88,-99.99,,,-99.99,0.000000,,2013-09-02 06:00:00,
2013-09-02 02:43:00,70.0,67.0,-100.00,WSW,247,1.0,-999.0,88,-99.99,,,-99.99,0.000000,,2013-09-02 06:43:00,
2013-09-02 02:52:00,70.0,67.0,-100.00,WSW,247,1.0,-999.0,88,-99.99,,,-99.99,0.000000,,2013-09-02 06:52:00,
2013-09-02 03:00:00,70.0,67.0,-100.00,NW,315,1.0,-999.0,89,-99.99,,,-99.99,0.000000,,2013-09-02 07:00:00,
2013-09-02 03:42:00,70.0,67.0,-100.00,NW,315,1.0,-999.0,89,-99.99,,,-99.99,0.000000,,2013-09-02 07:42:00,
2013-09-02 03:52:00,70.0,67.0,-100.00,NW,315,1.0,-999.0,89,-99.99,,,-99.99,0.000000,,2013-09-02 07:52:00,
2013-09-02 04:00:00,69.0,66.0,-100.00,North,0,3.0,-999.0,90,-99.99,,,-99.99,0.000000,,2013-09-02 08:00:00,
2013-09-02 04:42:00,69.0,66.0,-100.00,North,0,3.0,-999.0,90,-99.99,,,-99.99,0.000000,,2013-09-02 08:42:00,
2013-09-02 04:52:00,69.0,66.0,-100.00,North,0,3.0,-999.0,90,-99.99,,,-99.99,0.000000,,2013-09-02 08:52:00,
2013-09-02 05:00:00,68.0,66.0,-100.00,North,0,3.0,-999.0,90,-99.99,,,-99.99,0.000000,,2013-09-02 09:00:00,
2013-09-02 05:44:00,68.0,66.0,-100.00,North,0,3.0,-999.0,90,-99.99,,,-99.99,0.000000,,2013-09-02 09:44:00,
2013-09-02 05:53:00,68.0,66.0,-100.00,North,0,3.0,-999.0,90,-99.99,,,-99.99,0.000000,,2013-09-02 09:53:00,
2013-09-02 06:00:00,68.0,65.0,-100.00,NNE,22,3.0,-999.0,90,-99.99,,,-99.99,0.000000,,2013-09-02 10:00:00,
2013-09-02 06:43:00,68.0,65.0,-100.00,NNE,22,3.0,-999.0,90,-99.99,,,-99.99,0.000000,,2013-09-02 10:43:00,
2013-09-02 06:53:00,68.0,65.0,-100.00,NNE,22,3.0,-999.0,90,-99.99,,,-99.99,0.000000,,2013-09-02 10:53:00,
2013-09-02 07:00:00,66.0,64.0,-100.00,North,0,3.0,-999.0,91,-99.99,,,-99.99,0.000000,,2013-09-02 11:00:00,
2013-09-02 07:42:00,66.0,64.0,-100.00,North,0,3.0,-999.0,91,-99.99,,,-99.99,0.000000,,2013-09-02 11:42:00,
2013-09-02 07:52:00,66.0,64.0,-100.00,North,0,3.0,-999.0,91,-99.99,,,-99.99,0.000000,,2013-09-02 11:52:00,
2013-09-02 08:00:00,65.0,62.0,-100.00,North,0,2.0,-999.0,91,-99.99,,,-99.99,27.840000,,2013-09-02 12:00:00,
2013-09-02 08:43:00,65.0,62.0,-100.00,North,0,2.0,-999.0,91,-99.99,,,-99.99,27.840000,,2013-09-02 12:43:00,
2013-09-02 08:52:00,65.0,62.0,-100.00,North,0,2.0,-999.0,91,-99.99,,,-99.99,27.840000,,2013-09-02 12:52:00,
2013-09-02 09:00:00,66.0,61.0,-100.00,North,0,5.0,-999.0,83,-99.99,,,-99.99,147.320007,,2013-09-02 13:00:00,
2013-09-02 09:42:00,66.0,61.0,-100.00,North,0,5.0,-999.0,83,-99.99,,,-99.99,147.320007,,2013-09-02 13:42:00,
2013-09-02 09:52:00,66.0,61.0,-100.00,North,0,5.0,-999.0,83,-99.99,,,-99.99,147.320007,,2013-09-02 13:52:00,
2013-09-02 10:00:00,69.0,59.0,-100.00,North,0,5.0,-999.0,71,-99.99,,,-99.99,307.399994,,2013-09-02 14:00:00,
2013-09-02 10:43:00,69.0,59.0,-100.00,North,0,5.0,-999.0,71,-99.99,,,-99.99,307.399994,,2013-09-02 14:43:00,
2013-09-02 10:52:00,69.0,59.0,-100.00,North,0,5.0,-999.0,71,-99.99,,,-99.99,307.399994,,2013-09-02 14:52:00,
2013-09-02 11:00:00,72.0,58.0,-100.00,North,0,6.0,-999.0,61,-99.99,,,-99.99,457.040009,,2013-09-02 15:00:00,
2013-09-02 11:45:00,72.0,58.0,-100.00,North,0,6.0,-999.0,61,-99.99,,,-99.99,457.040009,,2013-09-02 15:45:00,
2013-09-02 11:55:00,72.0,58.0,-100.00,North,0,6.0,-999.0,61,-99.99,,,-99.99,457.040009,,2013-09-02 15:55:00,
2013-09-02 12:00:00,73.0,58.0,-100.00,North,0,7.0,-999.0,59,-99.99,,,-99.99,605.520020,,2013-09-02 16:00:00,
2013-09-02 12:43:00,73.0,58.0,-100.00,North,0,7.0,-999.0,59,-99.99,,,-99.99,605.520020,,2013-09-02 16:43:00,
2013-09-02 12:53:00,73.0,58.0,-100.00,North,0,7.0,-999.0,59,-99.99,,,-99.99,605.520020,,2013-09-02 16:53:00,
2013-09-02 14:00:00,74.0,56.0,-100.00,NNW,337,7.0,-999.0,53,-99.99,,,-99.99,470.959991,,2013-09-02 18:00:00,
2013-09-02 14:42:00,74.0,56.0,-100.00,NNW,337,7.0,-999.0,53,-99.99,,,-99.99,470.959991,,2013-09-02 18:42:00,
2013-09-02 14:52:00,74.0,56.0,-100.00,NNW,337,7.0,-999.0,53,-99.99,,,-99.99,470.959991,,2013-09-02 18:52:00,
2013-09-02 15:00:00,74.0,55.0,-100.00,NW,315,7.0,-999.0,51,-99.99,,,-99.99,540.559998,,2013-09-02 19:00:00,
2013-09-02 15:42:00,74.0,55.0,-100.00,NW,315,7.0,-999.0,51,-99.99,,,-99.99,540.559998,,2013-09-02 19:42:00,
2013-09-02 15:52:00,74.0,55.0,-100.00,NW,315,7.0,-999.0,51,-99.99,,,-99.99,540.559998,,2013-09-02 19:52:00,
2013-09-02 16:00:00,74.0,55.0,-100.00,NNW,337,8.0,-999.0,52,-99.99,,,-99.99,532.440002,,2013-09-02 20:00:00,
2013-09-02 16:42:00,74.0,55.0,-100.00,NNW,337,8.0,-999.0,52,-99.99,,,-99.99,532.440002,,2013-09-02 20:42:00,
2013-09-02 16:52:00,74.0,55.0,-100.00,NNW,337,8.0,-999.0,52,-99.99,,,-99.99,532.440002,,2013-09-02 20:52:00,
2013-09-02 17:00:00,72.0,56.0,-100.00,NNW,337,7.0,-999.0,58,-99.99,,,-99.99,441.959991,,2013-09-02 21:00:00,
2013-09-02 17:44:00,72.0,56.0,-100.00,NNW,337,7.0,-999.0,58,-99.99,,,-99.99,441.959991,,2013-09-02 21:44:00,
2013-09-02 17:55:00,72.0,56.0,-100.00,NNW,337,7.0,-999.0,58,-99.99,,,-99.99,441.959991,,2013-09-02 21:55:00,
2013-09-02 18:00:00,69.0,56.0,-100.00,NNW,337,7.0,-999.0,62,-99.99,,,-99.99,262.160004,,2013-09-02 22:00:00,
2013-09-02 18:44:00,69.0,56.0,-100.00,NNW,337,7.0,-999.0,62,-99.99,,,-99.99,262.160004,,2013-09-02 22:44:00,
2013-09-02 18:54:00,69.0,56.0,-100.00,NNW,337,7.0,-999.0,62,-99.99,,,-99.99,262.160004,,2013-09-02 22:54:00,
2013-09-02 19:00:00,66.0,55.0,-100.00,NNW,337,6.0,-999.0,68,-99.99,,,-99.99,112.519997,,2013-09-02 23:00:00,
2013-09-02 19:42:00,66.0,55.0,-100.00,NNW,337,6.0,-999.0,68,-99.99,,,-99.99,112.519997,,2013-09-02 23:42:00,
2013-09-02 19:53:00,66.0,55.0,-100.00,NNW,337,6.0,-999.0,68,-99.99,,,-99.99,112.519997,,2013-09-02 23:53:00,
2013-09-02 21:00:00,60.0,52.0,-100.00,NNW,337,5.0,-999.0,75,-99.99,,,-99.99,2.320000,,2013-09-03 01:00:00,
2013-09-02 21:42:00,60.0,52.0,-100.00,NNW,337,5.0,-999.0,75,-99.99,,,-99.99,2.320000,,2013-09-03 01:42:00,
2013-09-02 21:52:00,60.0,52.0,-100.00,NNW,337,5.0,-999.0,75,-99.99,,,-99.99,2.320000,,2013-09-03 01:52:00,
2013-09-02 22:00:00,57.0,51.0,-100.00,North,0,2.0,-999.0,81,-99.99,,,-99.99,0.000000,,2013-09-03 02:00:00,
2013-09-02 22:42:00,57.0,51.0,-100.00,North,0,2.0,-999.0,81,-99.99,,,-99.99,0.000000,,2013-09-03 02:42:00,
2013-09-02 22:52:00,57.0,51.0,-100.00,North,0,2.0,-999.0,81,-99.99,,,-99.99,0.000000,,2013-09-03 02:52:00,
2013-09-02 23:00:00,55.0,51.0,-100.00,North,0,1.0,-999.0,85,-99.99,,,-99.99,0.000000,,2013-09-03 03:00:00,
2013-09-02 23:45:00,55.0,51.0,-100.00,North,0,1.0,-999.0,85,-99.99,,,-99.99,0.000000,,2013-09-03 03:45:00,
2013-09-02 23:55:00,55.0,51.0,-100.00,North,0,1.0,-999.0,85,-99.99,,,-99.99,0.000000,,2013-09-03 03:55:00,